Vertical_Velocity
-4 -1 -3 -5 -4 -3 -1 -2 -1 -2 0 -8 5 -4 -3 -1 -0 -3 -5 5 -4 -1 2 2 -5 -3 -1 1 -3 -3 -2 -0 -3 -2 -6 5 -4 -8 5 -2 -2 -9 1
4 2 -3 1 1 -6 -4 -2 -5 -1 1 -4 2 -3 -0 -2 -2 -2 -2 0 3 -4 -1 3 -4 -5 -2 -5 -4 -1 -0 4 -2 -9 5 10 -11 -9 -6 0 -12 12 27
2 4 6 0 -4 1 -0 -1 3 -2 -1 4 -1 1 -5 -3 -5 -7 -6 -4 -1 -2 -4 -2 -2 -3 -5 -3 -3 1 -6 -5 -0 -4 1 -8 5 -7 6 -7 -1 -10 -17
4 -1 -1 -3 -1 7 5 -4 -0 -2 -2 0 0 -5 -2 2 2 0 -2 -3 -4 -8 -3 0 0 -3 -3 -0 -3 -1 2 -1 -6 1 -1 -3 4 5 -2 -7 8 -6 -3
-1 2 -7 4 4 5 1 -0 4 0 -2 -2 3 -2 -4 -3 -3 -4 1 1 6 4 7 6 2 0 -3 -2 -1 -6 -3 -3 0 3 -5 -1 -6 6 4 -4 -5 3 4
5 -8 3 -2 2 -4 2 5 1 -2 -3 1 -5 -3 -0 -4 -5 0 3 -3 -3 3 2 8 6 -1 -3 -7 -2 -2 -2 -2 -5 -4 1 -1 1 -6 -17 -4 8 0 -6
-1 6 1 4 -1 2 -4 -6 -4 0 5 -5 3 4 -7 -4 -1 -2 -1 0 5 6 5 2 -2 -4 -5 -5 0 5 2 -3 2 0 -2 1 16 1 -3 -7 -7 2 -2
1 -2 1 3 5 -3 -3 -1 1 -2 -0 -1 -3 0 -1 -7 -3 2 5 3 2 1 -8 -4 -4 4 -4 -3 -3 2 3 -6 -8 -3 -12 -10 -7 -0 -0 -10 -5 -1 -5
-5 0 1 -1 -1 2 -6 4 6 -1 1 0 1 -3 -9 0 1 2 12 10 1 -0 -2 -4 -3 1 1 -3 -4 -3 0 -4 -5 -2 4 -0 -3 7 -4 -1 -9 -0 -2
2 4 1 0 -3 -3 6 -4 -0 -6 0 1 -0 1 2 -1 0 -1 7 14 1 -0 2 -4 -5 -1 -0 4 -8 1 -7 -9 -1 -6 -6 -4 3 -1 5 -7 -1 1 6
-1 1 1 0 -1 5 1 2 4 5 3 -1 -0 2 -2 -3 1 -3 1 1 -5 10 -2 -2 4 4 -2 1 -5 -3 -15 13 2 -0 1 2 -1 -1 -0 -4 -0 -1 -1
2 -1 1 4 0 3 4 5 3 4 0 1 4 -1 -2 0 2 2 5 -1 13 2 -5 8 2 6 7 3 10 11 12 14 7 4 5 -2 4 -11 14 -12 1 -1 -0
3 1 3 5 -0 3 8 4 1 3 -1 2 -1 2 0 9 3 -1 0 6 5 -0 11 16 0 -3 -7 10 9 15 12 7 6 -4 -7 -3 -4 -17 23 -20 -4 3 -1
3 2 2 3 2 2 -1 5 -1 1 2 -4 5 0 -0 3 -6 11 5 5 8 6 8 13 12 5 14 -4 -14 -9 21 4 5 1 0 -6 -3 16 9 -30 -1 -6 -1
1 1 1 1 -2 1 -3 2 2 -4 0 7 -2 -6 3 4 -1 4 4 6 -1 -5 1 -1 1 23 10 8 7 -11 -24 9 -10 -2 1 -6 5 0 1 -7 -2 2 -5
-1 -0 9 9 1 -7 6 -5 -12 -7 5 -3 -2 7 1 1 2 9 17 4 4 1 5 -2 -2 -7 -11 -6 -23 5 -1 0 2 -1 -7 -13 -1 12 -4 1 -1 5 0
2 -2 5 -6 3 7 13 10 11 17 7 7 7 -7 2 -1 -2 -1 4 4 6 24 7 -3 7 4 7 12 -3 2 4 -9 -27 15 0 6 4 5 -3 -2 5 -7 0
-2 -4 3 4 1 2 1 -1 -3 -5 -2 1 -3 -9 -4 -5 -3 0 7 7 3 -5 -2 -2 -7 1 1 -1 1 1 1 -9 -17 -8 1 6 7 -6 2 -2 3 -5 -3
-1 -0 4 -5 -9 -6 -2 1 -4 -3 -4 -4 -1 2 -6 -3 -3 -3 4 3 1 1 3 26 15 4 10 5 0 -0 5 -8 -15 5 18 -4 2 2 2 -3 -9 5 5
-1 -5 -4 -3 3 4 -5 -1 0 5 4 2 1 1 -2 -2 -10 -8 -6 -6 2 10 -11 3 34 88 54 -8 -15 8 4 19 -18 -0 7 -6 3 -4 -3 -0 -5 3 -10
-7 -1 -2 4 2 3 4 -5 -7 -6 6 -2 2 -3 -7 -2 -1 -7 -8 -1 -3 11 9 10 1 3 15 74 -9 -11 8 5 -7 3 10 -5 3 1 -2 5 -6 -4 10
1 -1 -2 -5 -1 -2 -2 1 -1 1 0 -5 -4 3 -5 -2 0 -4 -2 -5 -4 4 9 -13 -1 -31 -35 -11 -9 5 3 2 3 5 3 -4 -3 -2 -1 -7 -2 1 -1
9 -3 -4 -3 7 10 10 -1 2 -6 -2 1 -2 -5 -5 2 3 2 -1 5 0 8 1 -0 -13 -1 4 13 4 -1 -2 -4 -4 -6 -2 -1 1 -8 -4 -1 -4 3 -1
-2 -0 1 0 -11 -4 -4 -6 2 2 1 -1 -1 -0 4 -2 -2 -9 -6 1 1 8 -7 8 3 9 5 5 3 -3 1 -1 -4 -1 4 -3 -0 1 2 -2 -0 1 3
-4 -4 -1 0 -3 3 1 -2 -3 -0 -2 2 -2 1 -3 -5 -3 9 4 5 0 -0 8 9 -5 4 10 5 3 -2 -4 -4 -8 -1 -2 3 4 5 -8 8 2 1 -1
1 -6 1 2 0 -1 -2 -0 -0 -3 -3 -0 3 0 -3 -3 0 1 4 2 4 5 5 5 10 0 -7 -11 -1 1 9 -9 -5 5 -4 5 -5 -0 3 -6 -0 -1 2
Height
1490 1495 1501 1505 1510 1516 1521 1525 1530 1534 1538 1541 1543 1544 1546 1549 1552 1555 1559 1562 1562 1563 1566 1568 1569 1572 1576 1578 1578 1578 1580 1581 1582 1582 1582 1581 1582 1583 1583 1583 1584 1583 1583
1481 1487 1491 1497 1502 1506 1510 1516 1521 1526 1530 1534 1538 1538 1541 1544 1547 1549 1552 1556 1557 1558 1560 1562 1564 1566 1569 1572 1573 1574 1577 1578 1578 1578 1579 1579 1579 1578 1579 1580 1580 1581 1580
1477 1480 1485 1487 1492 1494 1499 1506 1512 1517 1522 1526 1529 1532 1534 1538 1540 1542 1545 1547 1550 1553 1554 1555 1556 1558 1561 1564 1566 1571 1571 1572 1573 1573 1575 1575 1575 1574 1574 1575 1575 1576 1576
1471 1475 1476 1477 1479 1485 1492 1497 1502 1507 1512 1517 1520 1523 1525 1528 1530 1532 1533 1536 1539 1542 1543 1545 1548 1550 1553 1557 1560 1562 1566 1568 1568 1569 1570 1569 1571 1571 1571 1571 1570 1569 1571
1461 1465 1466 1471 1477 1482 1485 1488 1493 1498 1503 1507 1511 1514 1518 1520 1523 1525 1528 1531 1532 1533 1536 1539 1543 1545 1547 1551 1553 1555 1557 1560 1563 1565 1565 1565 1567 1568 1567 1567 1567 1567 1566
1453 1453 1459 1463 1467 1470 1477 1481 1486 1488 1491 1496 1499 1502 1506 1508 1512 1516 1518 1521 1525 1529 1532 1535 1538 1540 1541 1544 1546 1548 1550 1552 1554 1558 1559 1559 1559 1561 1563 1565 1565 1564 1563
1443 1447 1451 1455 1457 1462 1468 1472 1472 1476 1483 1483 1487 1492 1495 1497 1501 1505 1509 1513 1515 1517 1522 1526 1529 1532 1530 1532 1536 1540 1541 1544 1547 1549 1552 1554 1554 1553 1556 1557 1560 1561 1559
1436 1438 1442 1446 1449 1452 1456 1458 1463 1467 1469 1474 1477 1480 1484 1484 1489 1494 1499 1503 1507 1509 1511 1513 1516 1519 1520 1523 1528 1531 1533 1535 1538 1541 1542 1545 1548 1549 1548 1550 1552 1553 1554
1424 1427 1432 1437 1441 1443 1445 1448 1454 1458 1460 1462 1466 1470 1471 1472 1477 1483 1490 1494 1496 1498 1500 1502 1506 1508 1509 1510 1516 1519 1522 1524 1527 1530 1533 1535 1538 1539 1542 1546 1548 1549 1548
1415 1418 1422 1428 1432 1433 1436 1441 1446 1450 1453 1457 1457 1458 1460 1462 1467 1471 1477 1483 1485 1484 1489 1491 1491 1495 1500 1500 1505 1507 1509 1512 1516 1518 1521 1525 1528 1531 1533 1537 1542 1545 1545
1411 1413 1415 1418 1422 1427 1431 1435 1438 1442 1448 1448 1449 1451 1452 1452 1454 1457 1462 1468 1469 1472 1475 1476 1478 1479 1484 1488 1489 1493 1493 1501 1505 1509 1512 1517 1523 1527 1526 1532 1535 1537 1540
1405 1407 1410 1413 1417 1421 1424 1428 1432 1436 1439 1441 1443 1443 1443 1442 1443 1446 1448 1452 1456 1461 1462 1464 1471 1475 1477 1478 1481 1486 1493 1496 1498 1502 1506 1510 1514 1523 1516 1525 1531 1532 1533
1399 1402 1406 1408 1411 1416 1419 1422 1427 1430 1433 1434 1436 1436 1434 1437 1437 1437 1436 1440 1446 1450 1452 1459 1460 1460 1468 1477 1482 1486 1487 1490 1493 1496 1500 1507 1511 1509 1509 1522 1525 1524 1525
1395 1399 1402 1405 1408 1411 1415 1419 1421 1424 1426 1428 1430 1430 1432 1433 1432 1433 1430 1432 1434 1438 1441 1447 1450 1454 1458 1449 1463 1478 1483 1479 1485 1487 1492 1497 1502 1508 1495 1513 1519 1518 1518
1394 1397 1399 1401 1403 1407 1410 1414 1416 1418 1421 1423 1424 1425 1426 1426 1426 1428 1429 1424 1422 1424 1433 1439 1440 1439 1438 1443 1446 1449 1475 1472 1474 1484 1488 1491 1494 1495 1491 1507 1509 1513 1515
1393 1396 1398 1400 1402 1404 1407 1408 1410 1412 1414 1416 1418 1418 1418 1418 1418 1418 1419 1419 1418 1415 1419 1419 1418 1415 1422 1421 1435 1443 1451 1451 1460 1466 1470 1477 1484 1488 1487 1500 1504 1505 1507
1392 1393 1397 1398 1401 1402 1404 1405 1407 1407 1409 1411 1411 1409 1409 1407 1407 1407 1407 1408 1407 1406 1402 1402 1401 1405 1406 1406 1411 1422 1428 1429 1455 1442 1463 1468 1477 1480 1485 1491 1496 1498 1502
1391 1392 1396 1398 1399 1400 1400 1401 1402 1404 1405 1405 1402 1400 1399 1398 1396 1395 1395 1394 1392 1386 1388 1387 1385 1386 1389 1392 1398 1404 1419 1429 1430 1444 1451 1458 1463 1471 1476 1483 1487 1492 1493
1391 1393 1395 1396 1397 1400 1402 1403 1402 1402 1402 1399 1397 1394 1391 1388 1385 1383 1382 1379 1379 1376 1376 1375 1365 1365 1366 1371 1381 1394 1402 1413 1418 1441 1442 1449 1459 1463 1469 1474 1480 1487 1488
1391 1391 1393 1396 1397 1399 1401 1403 1403 1400 1398 1397 1393 1389 1387 1385 1380 1378 1373 1370 1371 1370 1371 1369 1364 1358 1321 1333 1364 1383 1393 1404 1405 1436 1436 1442 1450 1455 1461 1469 1472 1478 1481
1394 1394 1392 1397 1398 1398 1396 1397 1398 1400 1398 1395 1393 1388 1388 1386 1383 1380 1381 1376 1376 1373 1367 1363 1361 1358 1355 1332 1340 1380 1391 1402 1410 1427 1429 1437 1445 1449 1455 1462 1468 1471 1474
1392 1391 1392 1394 1397 1397 1398 1397 1396 1395 1394 1392 1391 1392 1390 1389 1387 1381 1383 1381 1380 1378 1372 1369 1365 1364 1370 1366 1380 1391 1392 1405 1415 1423 1427 1437 1441 1447 1451 1456 1462 1464 1466
1395 1396 1396 1398 1402 1405 1402 1402 1398 1395 1397 1394 1392 1392 1392 1391 1386 1381 1384 1382 1379 1378 1374 1373 1374 1376 1379 1381 1386 1392 1400 1407 1413 1419 1427 1433 1436 1441 1445 1450 1455 1457 1458
1400 1399 1400 1399 1402 1405 1401 1403 1402 1401 1398 1398 1396 1393 1390 1389 1387 1383 1384 1382 1381 1376 1379 1377 1380 1382 1384 1387 1390 1396 1403 1406 1412 1419 1424 1428 1432 1438 1442 1446 1451 1453 1455
1401 1403 1406 1405 1407 1408 1403 1403 1403 1401 1400 1399 1396 1394 1391 1391 1389 1387 1384 1384 1382 1381 1382 1382 1384 1387 1388 1391 1394 1397 1402 1409 1414 1418 1422 1428 1431 1435 1439 1445 1446 1448 1450
1408 1410 1412 1412 1411 1409 1408 1408 1406 1405 1407 1404 1400 1394 1393 1392 1391 1388 1386 1384 1384 1382 1384 1387 1389 1390 1392 1396 1398 1401 1405 1408 1413 1417 1423 1425 1429 1432 1437 1437 1440 1444 1446